Location: Marcé
(47.5801°N, 0.3280°W)
Time: 15:23:30
(UTC+02:00)

FENGYUN 1C DEB - Pass Details

Date: 07 July 2022
Orbit: 567 x 661 km, 99.1° (Epoch: 16 August)

Event Time Altitude Azimuth Distance (km) Brightness Sun altitude
Rises 22:52:46 0° 1° (N) 2,940 ? -7.5°
Maximum altitude 22:58:20 16° 303° (WNW) 1,625 ? -8.2°
Drops below altitude 10° 23:00:55 10° 265° (W) 1,959 ? -8.5°
Sets 23:03:45 0° 244° (WSW) 2,837 ? -8.8°
